Vicksburg, LA

7:39 AM CST on December 11, 2017 (GMT -0600)
Vicksburg Tallulah Regional

Weather History for KTVR - March, 2013

Change the Weather History Date:

Friday, March 8, 2013

  Actual Average Record
Temperature  
Mean Temperature 52 °F 55 °F  
Max Temperature 71 °F 66 °F 85 °F (1974)
Min Temperature 32 °F 44 °F 23 °F (1996)
Degree Days  
Heating Degree Days 13 10  
Month to date heating degree days 155 89  
Since 1 July heating degree days 1925 2065  
Cooling Degree Days 0 1  
Month to date cooling degree days 0 5  
Year to date cooling degree days 18 14  
Growing Degree Days 2 (Base 50)    
Moisture  
Dew Point 36 °F    
Average Humidity 63    
Maximum Humidity 100    
Minimum Humidity 26    
Precipitation  
Precipitation 0.00 in 0.18 in 2.20 in (1998)
Month to date precipitation 0.01 1.52  
Year to date precipitation 22.84 11.86  
Sea Level Pressure  
Sea Level Pressure 30.27 in    
Wind  
Wind Speed 2 mph (ENE)    
Max Wind Speed 12 mph    
Max Gust Speed 14 mph    
Visibility 8 miles    
Events Fog    
T = Trace of Precipitation, MM = Missing Value Source: NWS Daily Summary

Daily Weather History Graph

Daily Weather History Graph

Search for Another Location

Airport or City:

Trip Planner

Search our weather history database for the weather conditions in past years. The results will help you decide how hot, cold, wet, or windy it might be!

Date:

Astronomy

Mar. 08, 2013 Rise Set
Actual Time 6:22 AM CST 6:07 PM CST
Civil Twilight 5:58 AM CST 6:31 PM CST
Nautical Twilight 5:29 AM CST 7:00 PM CST
Astronomical Twilight 5:01 AM CST 7:28 PM CST
Moon 3:58 AM CST (3/8) 3:10 PM CST (3/8)
Length of Visible Light 12h 33m
Length of Day
11h 44m
Waning Crescent, 11% of the Moon is Illuminated
Mar 8
Waning Crescent
Mar 11
New
Mar 19
First Quarter
Mar 27
Full
Apr 2
Last Quarter

Hourly Weather History & Observations

Time (CST) Temp. Windchill Dew Point Humidity Pressure Visibility Wind Dir Wind Speed Gust Speed Precip Events Conditions
12:53 AM 37.0 °F - 34.0 °F 89% 30.30 in 10.0 mi Calm Calm - N/A   Clear
1:53 AM 34.0 °F - 33.1 °F 96% 30.29 in 10.0 mi Calm Calm - N/A   Clear
2:53 AM 35.1 °F 32.2 °F 34.0 °F 96% 30.27 in 10.0 mi ENE 3.5 mph - N/A   Clear
3:53 AM 34.0 °F - 33.1 °F 96% 30.29 in 8.0 mi Calm Calm - N/A   Clear
4:49 AM 33.8 °F - 33.8 °F 100% 30.27 in 0.8 mi Calm Calm - N/A   Clear
4:53 AM 33.1 °F - 32.0 °F 96% 30.29 in 0.5 mi Calm Calm - N/A Fog Fog
4:59 AM 33.8 °F - 33.8 °F 100% 30.27 in 2.5 mi Calm Calm - N/A   Clear
5:06 AM 33.8 °F - 32.0 °F 93% 30.27 in 6.0 mi Calm Calm - N/A   Clear
5:23 AM 32.0 °F - 32.0 °F 100% 30.28 in 2.5 mi Calm Calm - N/A   Clear
5:30 AM 33.8 °F - 32.0 °F 93% 30.29 in 7.0 mi Calm Calm - N/A   Clear
5:53 AM 34.0 °F 31.0 °F 33.1 °F 96% 30.31 in 6.0 mi NE 3.5 mph - N/A   Clear
6:03 AM 35.6 °F 31.7 °F 33.8 °F 93% 30.29 in 2.5 mi NE 4.6 mph - N/A   Clear
6:11 AM 35.6 °F 31.7 °F 33.8 °F 93% 30.29 in 10.0 mi ENE 4.6 mph - N/A   Clear
6:53 AM 37.9 °F 34.4 °F 35.1 °F 89% 30.33 in 10.0 mi East 4.6 mph - N/A   Clear
7:53 AM 48.0 °F - 39.0 °F 71% 30.34 in 10.0 mi ESE 5.8 mph - N/A   Clear
8:53 AM 53.1 °F - 35.1 °F 50% 30.35 in 10.0 mi ESE 9.2 mph - N/A   Clear
9:53 AM 57.0 °F - 35.1 °F 44% 30.36 in 10.0 mi Calm Calm - N/A   Clear
10:53 AM 62.1 °F - 37.0 °F 39% 30.34 in 10.0 mi Variable 4.6 mph - N/A   Clear
11:53 AM 64.0 °F - 36.0 °F 35% 30.32 in 10.0 mi Variable 5.8 mph - N/A   Clear
12:53 PM 68.0 °F - 36.0 °F 31% 30.29 in 10.0 mi ENE 3.5 mph - N/A   Clear
1:53 PM 70.0 °F - 35.1 °F 28% 30.25 in 10.0 mi NNE 4.6 mph - N/A   Clear
2:53 PM 70.0 °F - 33.1 °F 26% 30.24 in 10.0 mi Calm Calm - N/A   Clear
3:53 PM 70.0 °F - 33.1 °F 26% 30.23 in 10.0 mi Calm Calm - N/A   Clear
4:53 PM 71.1 °F - 35.1 °F 27% 30.21 in 10.0 mi Calm Calm - N/A   Clear
5:53 PM 64.0 °F - 37.0 °F 37% 30.20 in 10.0 mi NE 3.5 mph - N/A   Clear
6:53 PM 57.9 °F - 39.9 °F 51% 30.20 in 10.0 mi Calm Calm - N/A   Clear
7:53 PM 55.0 °F - 45.0 °F 69% 30.22 in 10.0 mi Calm Calm - N/A   Clear
8:53 PM 55.0 °F - 43.0 °F 64% 30.22 in 10.0 mi Calm Calm - N/A   Clear
9:53 PM 55.0 °F - 43.0 °F 64% 30.21 in 10.0 mi Calm Calm - N/A   Clear
10:53 PM 54.0 °F - 42.1 °F 64% 30.19 in 10.0 mi East 3.5 mph - N/A   Clear
11:53 PM 54.0 °F - 41.0 °F 62% 30.18 in 10.0 mi SE 5.8 mph - N/A   Clear